User: anonymous   Login
Location: PSU-Greenbush Astrophysical Observatory
(37.5140°N, 94.9880°W)
Time: 11:58:27
(UTC-06:00)
Language:

Transit 4A - Orbit

View from above orbital plane
View from above orbital plane
View from above satellite
View from above satellite

Ground track
Ground track

The orbit data is extracted from the following two-line orbital elements,

1   116U 61015A   20020.50505763 -.00000042  00000-0  26591-4 0  9990
2   116  66.8077 212.3277 0069664 115.3630 245.4685 13.91764605971584
Epoch (UTC): 20 January 2020 12:07:16
Eccentricity: 0.0069664
inclination: 66.8077°
perigee height: 871 km
apogee height: 973 km
right ascension of ascending node: 212.3277°
argument of perigee: 115.3630°
revolutions per day: 13.91764605
mean anomaly at epoch: 245.4685°
orbit number at epoch: 97158

The dashed part of the orbit path shows where the satellite is in the earth's shadow,  

DLR